Location: Vancouver
(49.2500°N, 123.1330°W)
Time: 04:31:00
(UTC-07:00)

SO-67 - Visible Passes

Search period start: 17 September 2014 00:00
Search period end: 27 September 2014 00:00
Orbit: 460 x 465 km, 97.2° (Epoch: 17 September)

Date Brightness Start Highest point End Pass type
(mag) Time Alt. Az. Time Alt. Az. Time Alt. Az.
18 Sep ? 20:26:08 10° SW 20:28:35 18° W 20:31:02 10° NW visible
19 Sep ? 19:54:08 10° S 19:57:24 39° W 20:00:41 10° NNW visible
21 Sep ? 20:26:06 10° SW 20:28:32 18° W 20:30:59 10° NW visible
22 Sep ? 19:54:02 10° S 19:57:18 39° W 20:00:35 10° NNW visible
24 Sep ? 20:25:53 10° SW 20:28:19 18° W 20:30:46 10° NW visible
25 Sep ? 19:53:45 10° S 19:57:01 39° W 20:00:18 10° NNW visible
